Regional Weather Roundup
Issued by NWS

Home | Current Version | Previous Version | Text Only | Print | Product List | Glossary Off
Versions: 1 2 3 4 5 6 7 8 9 10 11 12 13 14 15 16 17 18 19 20 21 22 23 24 25 26 27 28 29 30 31 32 33 34 35 36 37 38 39 40 41 42 43 44 45 46 47 48 49 50

936
ASUS45 KCYS 240210
RWRWY

WYOMING REGIONAL WEATHER ROUNDUP
NATIONAL WEATHER SERVICE CHEYENNE WY
700 PM MST THU FEB 23 2017

NOTE:  "FAIR" INDICATES FEW OR NO CLOUDS BELOW 12,000 FEET
WITH NO SIGNIFICANT WEATHER AND/OR OBSTRUCTIONS TO VISIBILITY.

WYZ001-240300-
YELLOWSTONE NATIONAL PARK

CITY           SKY/WX    TMP DP  RH WIND       PRES   REMARKS
LK YELLOWSTONE   N/A     14   5  67 VRB3      29.73S
W YELLOWSTONE  NOT AVBL

$$
WYZ002>013-054>058-071-098>099-240300-
NORTHERN WYOMING

CITY           SKY/WX    TMP DP  RH WIND       PRES   REMARKS
JACKSON        CLOUDY    23  16  74 N17G29    29.71R WCI   9
CODY           LGT SNOW  21  18  86 N12G17    29.90R FOG     WCI   9
GREYBULL       CLOUDY    28  21  75 W17       29.86R WCI  16
WORLAND        LGT SNOW  25  23  92 W6        29.88R FOG     WCI  18
SHERIDAN       FLURRIES  27  21  78 SE12      29.95R WCI  17
BUFFALO        LGT SNOW  23  19  85 N7        29.91R FOG     WCI  15
GILLETTE       CLOUDY    24  20  84 NE14      29.92R WCI  12
HULETT         CLOUDY    27  23  86 MISG      29.94R
NEWCASTLE      FAIR      27  18  69 NE7       29.90R WCI  19

$$
WYZ014>020-022>026-101>103-240300-
CENTRAL WYOMING

CITY           SKY/WX    TMP DP  RH WIND       PRES   REMARKS
BIG PINEY      LGT SNOW  19  17  92 SW14      29.73R WCI   6
PINEDALE       CLOUDY    21  16  79 SW6       29.72R WCI  14
DUBOIS         LGT SNOW  18  14  86 SE8       29.73S WCI   7
LANDER         LGT SNOW  21  20  96 N3        29.82R VSB 3/4
RIVERTON       LGT SNOW  21  18  88 N10       29.82R FOG     WCI  10
CASPER         LGT SNOW  18  15  88 E18       29.83R FOG     WCI   2
DOUGLAS        LGT SNOW  19  16  88 S5        29.88R FOG     WCI  12

$$
WYZ021-027>030-104>119-240300-
SOUTHERN WYOMING

CITY           SKY/WX    TMP DP  RH WIND       PRES   REMARKS
EVANSTON       CLOUDY    18  13  80 SW16      29.74R WCI   3
FORT BRIDGER   CLOUDY    19  19 100 W13       29.77R WCI   7
ROCK SPRINGS   CLOUDY    19  12  74 NE24G30   29.71R WCI   2
DIXON            N/A     22  14  72 S16       29.71R WCI   8
RAWLINS        CLOUDY    15  10  80 NE20      29.68R WCI  -2
SARATOGA       CLOUDY    18  12  79 SE5       29.67R WCI  11
LARAMIE        CLOUDY    12   5  73 E9        29.71R WCI   0
CHEYENNE       LGT SNOW  15  11  83 N14G23    29.77R FOG     WCI   0
TORRINGTON     LGT SNOW  21  18  88 N9        29.88R FOG     WCI  11
PINE BLUFFS    CLOUDY    19  18  93 N14G22    29.81R WCI   6

$$




USA.gov is the U.S. government's official web portal to all federal, state and local government web resources and services.